User: anonymous   Login
Location: Fort Worth, Tx
(32.7431°N, 97.3695°W)
Time: 05:07:43
(UTC-05:00)
Language:

Transit 2A - Orbit

View from above orbital plane
View from above orbital plane
View from above satellite
View from above satellite

Ground track
Ground track

The orbit data is extracted from the following two-line orbital elements,

1 00045U 60007A   24053.75029868  .00000410  00000-0  12941-3 0  9996
2 00045  66.6931  74.2638 0246873  55.0280 307.3732 14.34540159258716
Epoch (UTC): 22 February 2024 18:00:25
Eccentricity: 0.0246873
inclination: 66.6931°
perigee height: 600 km
apogee height: 953 km
right ascension of ascending node: 74.2638°
argument of perigee: 55.0280°
revolutions per day: 14.34540159
mean anomaly at epoch: 307.3732°
orbit number at epoch: 25871

The dashed part of the orbit path shows where the satellite is in the earth's shadow,  

DLR